Home > Weather > Nizhny Novgorod > Past weeks

Flag for Russia Past Weather in Nizhny Novgorod, Russia — Yesterday and Last 2 Weeks

Now
84 °F

Scattered clouds.


Feels Like: 84 °F
Forecast: 57 / 85 °F
Wind: 3 mph from Southwest

Location: Nizhny Novgorod/Strigino

Current Time: Jul 29, 2016 at 3:16:24 PM

Latest Report: Jul 29, 2016 at 2:30 PM


Visibility: N/A

Pressure: 29.92 "Hg

Humidity: 45%

Dew Point: 61 °F

Location of Nizhny NovgorodLocation

Past Weather in Nizhny Novgorod — Graph

°F

Nizhny Novgorod Temperature Yesterday

Maximum temperature yesterday: 82 °F (at 2:30 PM)
Minimum temperature yesterday: 55 °F (at 2:30 AM)
Average temperature yesterday: 70 °F

High & Low Weather Summary for the Past Weeks

 TemperatureHumidityPressure
High90 °F (Jul 16, 2:00 PM)100% (Jul 14, 10:00 PM)30.04 "Hg (Jul 14, 10:00 PM)
Low52 °F (Jul 18, 3:30 AM)35% (Jul 26, 3:00 PM)29.74 "Hg (Jul 19, 11:00 AM)
Average71 °F75%29.91 "Hg
* Reported Jul 14 2:00 PM — Jul 29 2:00 PM, Nizhny Novgorod, Weather by CustomWeather, © 2016

Note: Actual official high and low records may vary slightly from our data, if they occured in-between our weather recording intervals... More about our weather records

Advertising

Nizhny Novgorod Weather History for the Previous 24 Hours

Scroll right to see more
 ConditionsComfort  
Time TempWeatherWind HumidityBarometerVisibility
2:00 PM
Fri, Jul 29
84 °FScattered clouds.3 mph45%29.92 "HgN/A
1:30 PM81 °FScattered clouds.3 mph51%29.92 "HgN/A
1:00 PM84 °FScattered clouds.3 mph45%29.92 "HgN/A
12:30 PM82 °FPassing clouds.3 mph48%29.92 "HgN/A
12:00 PM82 °FPassing clouds.3 mph48%29.92 "HgN/A
11:30 AM82 °FPassing clouds.3 mph48%29.92 "HgN/A
11:00 AM81 °FPassing clouds.3 mph54%29.92 "HgN/A
10:30 AM81 °FPassing clouds.3 mph51%29.95 "HgN/A
10:00 AM79 °FSunny.1 mph54%29.95 "Hg10 mi
9:30 AM79 °FSunny.1 mph58%29.92 "Hg10 mi
9:00 AM77 °FSunny.1 mph61%29.92 "Hg10 mi
8:30 AM75 °FSunny.1 mph69%29.92 "Hg10 mi
8:00 AM73 °FSunny.1 mph74%29.95 "Hg10 mi
7:30 AM72 °FSunny.1 mph83%29.92 "Hg10 mi
7:00 AM70 °FClear.No wind88%29.92 "Hg4 mi
6:30 AM66 °FClear.No wind100%29.92 "Hg5 mi
6:00 AM64 °FFog.No wind100%29.92 "Hg3 mi
5:30 AM63 °FFog.No wind94%29.92 "Hg2 mi
5:00 AM59 °FCool.No wind100%29.92 "Hg2 mi
4:30 AM59 °FCool.1 mph100%29.92 "Hg1 mi
4:00 AM57 °FCool.No wind100%29.92 "Hg0 mi
3:30 AM59 °FCool.1 mph100%29.92 "Hg1 mi
3:00 AM59 °FFog.No wind94%29.92 "Hg0 mi
2:30 AM59 °FCool.No wind100%29.92 "Hg1 mi
2:00 AM59 °FFog.No wind100%29.89 "Hg1 mi
1:30 AM61 °FFog.No wind100%29.92 "Hg1 mi
1:00 AM61 °FCool.No wind100%29.89 "Hg1 mi
12:30 AM63 °FFog.No wind100%29.92 "Hg2 mi
12:00 AM63 °FFog.No wind100%29.92 "Hg1 mi
11:30 PM
Thu, Jul 28
64 °FFog.3 mph100%29.89 "Hg2 mi
11:00 PM63 °FFog.No wind100%29.92 "Hg2 mi
10:30 PM63 °FFog.No wind100%29.92 "Hg2 mi
10:00 PM64 °FFog.No wind100%29.89 "Hg3 mi
9:30 PM66 °FPassing clouds.No wind88%29.89 "Hg4 mi
9:00 PM70 °FPassing clouds.3 mph83%29.89 "Hg6 mi
8:30 PM70 °FPassing clouds.1 mph83%29.89 "Hg5 mi
8:00 PM70 °FScattered clouds.1 mph88%29.89 "Hg6 mi
7:30 PM73 °FScattered clouds.3 mph78%29.89 "Hg4 mi
7:00 PM77 °FScattered clouds.1 mph69%29.89 "HgN/A
6:30 PM77 °FScattered clouds.1 mph74%29.89 "HgN/A
6:00 PM81 °FScattered clouds.1 mph62%29.89 "Hg4 mi
5:30 PM79 °FScattered clouds.1 mph61%29.89 "HgN/A
5:00 PM81 °FScattered clouds.1 mph58%29.89 "HgN/A
4:30 PM81 °FScattered clouds.3 mph54%29.89 "Hg5 mi
4:00 PM82 °FScattered clouds.3 mph55%29.89 "HgN/A
3:30 PM82 °FScattered clouds.1 mph48%29.89 "HgN/A
3:00 PM81 °FScattered clouds.3 mph54%29.92 "Hg6 mi
Weather by CustomWeather, © 2016

See weather overviewHow to use our weather pages